Location: Mannheim
(49.4880°N, 8.4650°E)
Time: 19:57:20
(UTC+02:00)

ISS - Pass Details

Date: 27 May 2022
Orbit: 415 x 420 km, 51.6° (Epoch: 26 June)

Event Time Altitude Azimuth Distance (km) Brightness Sun altitude
Rises 23:12:57 0° 287° (WNW) 2,367 0.8 -13.4°
Reaches altitude 10° 23:15:17 10° 274° (W) 1,498 -0.5 -13.6°
Maximum altitude 23:18:06 25° 216° (SW) 881 -2.4 -13.8°
Enters shadow 23:19:04 22° 188° (S) 972 -2.4 -13.9°
